User: anonymous   Login
Location: Akdamlar
(36.8729°N, 30.5187°E)
Time: 18:39:23
(UTC+00:00)
Language:

SJ-6B - Orbit

View from above orbital plane
View from above orbital plane
View from above satellite
View from above satellite

Ground track
Ground track

The orbit data is extracted from the following two-line orbital elements,

1 28415U 04035C   20330.86147752 +.00000919 +00000-0 +63894-4 0  9993
2 28415 097.5945 010.4990 0052020 160.5351 199.7879 15.06957051887949
Epoch (UTC): 25 November 2020 20:40:31
Eccentricity: 0.0052020
inclination: 97.5945°
perigee height: 509 km
apogee height: 581 km
right ascension of ascending node: 10.4990°
argument of perigee: 160.5351°
revolutions per day: 15.06957051
mean anomaly at epoch: 199.7879°
orbit number at epoch: 88794

The dashed part of the orbit path shows where the satellite is in the earth's shadow,  

DLR